Menominee, MI

2:30 AM CDT on July 24, 2017 (GMT -0500)
Menominee-Marinette Twin County

Weather History for KMNM - November, 2013

Change the Weather History Date:

Friday, November 1, 2013

  Actual Average Record
Temperature  
Mean Temperature 48 °F -  
Max Temperature 53 °F 53 °F 72 °F (1950)
Min Temperature 41 °F 36 °F 21 °F (1951)
Degree Days  
Heating Degree Days 17    
Moisture  
Dew Point 41 °F    
Average Humidity 83    
Maximum Humidity 100    
Minimum Humidity 71    
Precipitation  
Precipitation 0.32 in - - ()
Sea Level Pressure  
Sea Level Pressure 29.44 in    
Wind  
Wind Speed 7 mph (NNW)    
Max Wind Speed 12 mph    
Max Gust Speed 20 mph    
Visibility 10 miles    
Events      
Averages and records for this station are not official NWS values.
T = Trace of Precipitation, MM = Missing Value Source: NWS Daily Summary

Daily Weather History Graph

Daily Weather History Graph

Search for Another Location

Airport or City:

Trip Planner

Search our weather history database for the weather conditions in past years. The results will help you decide how hot, cold, wet, or windy it might be!

Date:

Astronomy

Nov. 01, 2013 Rise Set
Actual Time 7:29 AM CDT 5:37 PM CDT
Civil Twilight 6:58 AM CDT 6:08 PM CDT
Nautical Twilight 6:24 AM CDT 6:43 PM CDT
Astronomical Twilight 5:49 AM CDT 7:17 PM CDT
Moon 5:16 AM CDT (11/1) 4:34 PM CDT (11/1)
Length of Visible Light 11h 09m
Length of Day
10h 08m
Waning Crescent, 4% of the Moon is Illuminated
Nov 1
Waning Crescent
Nov 3
New
Nov 9
First Quarter
Nov 17
Full
Nov 25
Last Quarter

Hourly Weather History & Observations

Time (CDT) Temp. Windchill Dew Point Humidity Pressure Visibility Wind Dir Wind Speed Gust Speed Precip Events Conditions
12:15 AM 53.6 °F - 51.8 °F 94% 29.11 in 10.0 mi WNW 5.8 mph - 0.04 in   Overcast
12:35 AM 55.4 °F - 51.8 °F 88% 29.11 in 10.0 mi NW 6.9 mph - 0.08 in   Overcast
12:55 AM 51.8 °F - 50.0 °F 94% 29.12 in 10.0 mi NNW 8.1 mph - 0.13 in   Overcast
1:15 AM 51.8 °F - 48.2 °F 88% 29.13 in 10.0 mi NNW 8.1 mph - 0.05 in   Overcast
1:35 AM 50.0 °F - 48.2 °F 94% 29.13 in 10.0 mi NW 9.2 mph 16.1 mph 0.06 in   Overcast
1:55 AM 48.2 °F - 48.2 °F 100% 29.14 in 9.0 mi NNW 9.2 mph - 0.08 in   Overcast
2:15 AM 48.2 °F - 46.4 °F 93% 29.15 in 9.0 mi NW 9.2 mph - 0.02 in   Overcast
2:35 AM 48.2 °F - 46.4 °F 93% 29.16 in 10.0 mi NNW 9.2 mph - 0.05 in   Overcast
2:55 AM 48.2 °F - 46.4 °F 93% 29.17 in 10.0 mi NW 5.8 mph - 0.08 in   Overcast
3:15 AM 48.2 °F - 46.4 °F 93% 29.18 in 10.0 mi WNW 5.8 mph - 0.01 in   Overcast
3:35 AM 46.4 °F 42.9 °F 46.4 °F 100% 29.19 in 10.0 mi NW 6.9 mph - 0.01 in   Overcast
3:55 AM 48.2 °F - 46.4 °F 93% 29.20 in 10.0 mi NW 5.8 mph - 0.02 in   Overcast
4:15 AM 48.2 °F - 46.4 °F 93% 29.21 in 10.0 mi WNW 5.8 mph - 0.01 in   Overcast
4:35 AM 48.2 °F - 44.6 °F 87% 29.22 in 10.0 mi NW 6.9 mph - 0.01 in   Overcast
4:55 AM 46.4 °F 42.9 °F 44.6 °F 93% 29.24 in 10.0 mi NW 6.9 mph - 0.01 in   Scattered Clouds
5:15 AM 46.4 °F 44.3 °F 44.6 °F 93% 29.25 in 10.0 mi NW 4.6 mph - N/A   Mostly Cloudy
5:35 AM 46.4 °F 42.4 °F 44.6 °F 93% 29.27 in 10.0 mi NW 8.1 mph - N/A   Overcast
5:55 AM 44.6 °F 41.4 °F 44.6 °F 100% 29.28 in 10.0 mi WNW 5.8 mph - N/A   Overcast
6:15 AM 46.4 °F 42.9 °F 42.8 °F 87% 29.30 in 10.0 mi NW 6.9 mph - N/A   Overcast
6:35 AM 46.4 °F 43.5 °F 42.8 °F 87% 29.31 in 10.0 mi NW 5.8 mph - N/A   Overcast
6:55 AM 46.4 °F 42.9 °F 42.8 °F 87% 29.32 in 10.0 mi NNW 6.9 mph - N/A   Overcast
7:15 AM 46.4 °F 43.5 °F 42.8 °F 87% 29.33 in 10.0 mi NW 5.8 mph - N/A   Overcast
7:35 AM 46.4 °F 45.2 °F 42.8 °F 87% 29.34 in 10.0 mi NW 3.5 mph - N/A   Overcast
7:55 AM 46.4 °F 43.5 °F 42.8 °F 87% 29.35 in 10.0 mi West 5.8 mph - N/A   Overcast
8:15 AM 46.4 °F 45.2 °F 41.0 °F 81% 29.37 in 10.0 mi WNW 3.5 mph - N/A   Scattered Clouds
8:35 AM 44.6 °F 42.2 °F 41.0 °F 87% 29.38 in 10.0 mi WNW 4.6 mph - N/A   Partly Cloudy
8:55 AM 44.6 °F 40.7 °F 42.8 °F 93% 29.39 in 10.0 mi NW 6.9 mph - N/A   Clear
9:15 AM 46.4 °F 43.5 °F 42.8 °F 87% 29.40 in 10.0 mi NW 5.8 mph - N/A   Clear
9:35 AM 48.2 °F - 42.8 °F 82% 29.41 in 10.0 mi NW 6.9 mph - N/A   Scattered Clouds
9:55 AM 48.2 °F - 42.8 °F 82% 29.42 in 10.0 mi NNW 6.9 mph 16.1 mph N/A   Overcast
10:15 AM 46.4 °F 42.9 °F 42.8 °F 87% 29.42 in 10.0 mi NNW 6.9 mph - N/A   Overcast
10:35 AM 48.2 °F - 42.8 °F 82% 29.43 in 10.0 mi NW 5.8 mph - N/A   Overcast
10:55 AM 46.4 °F 42.4 °F 41.0 °F 81% 29.44 in 10.0 mi NW 8.1 mph - N/A   Overcast
11:15 AM 46.4 °F 42.9 °F 41.0 °F 81% 29.45 in 10.0 mi NW 6.9 mph - N/A   Overcast
11:35 AM 46.4 °F 42.4 °F 41.0 °F 81% 29.46 in 10.0 mi NNW 8.1 mph - N/A   Overcast
11:55 AM 46.4 °F 42.4 °F 41.0 °F 81% 29.47 in 10.0 mi NNW 8.1 mph - N/A   Overcast
12:15 PM 46.4 °F 42.4 °F 39.2 °F 76% 29.47 in 10.0 mi NNW 8.1 mph - N/A   Overcast
12:35 PM 46.4 °F 42.9 °F 39.2 °F 76% 29.48 in 10.0 mi NNW 6.9 mph 19.6 mph N/A   Overcast
12:55 PM 46.4 °F 41.1 °F 39.2 °F 76% 29.48 in 10.0 mi NNW 11.5 mph - N/A   Overcast
1:15 PM 46.4 °F 41.5 °F 39.2 °F 76% 29.49 in 10.0 mi NNW 10.4 mph 16.1 mph N/A   Overcast
1:35 PM 46.4 °F 42.4 °F 39.2 °F 76% 29.49 in 10.0 mi NNW 8.1 mph - N/A   Overcast
1:55 PM 46.4 °F 42.4 °F 39.2 °F 76% 29.49 in 10.0 mi NNW 8.1 mph - N/A   Overcast
2:15 PM 46.4 °F 43.5 °F 37.4 °F 71% 29.51 in 10.0 mi NNW 5.8 mph - N/A   Overcast
2:35 PM 46.4 °F 41.1 °F 39.2 °F 76% 29.52 in 10.0 mi NNW 11.5 mph 16.1 mph N/A   Overcast
2:55 PM 46.4 °F 42.4 °F 39.2 °F 76% 29.52 in 10.0 mi NNW 8.1 mph - N/A   Mostly Cloudy
3:15 PM 46.4 °F 44.3 °F 37.4 °F 71% 29.53 in 10.0 mi NW 4.6 mph - N/A   Overcast
3:35 PM 46.4 °F 42.4 °F 37.4 °F 71% 29.54 in 10.0 mi NNW 8.1 mph - N/A   Overcast
3:55 PM 46.4 °F 45.2 °F 37.4 °F 71% 29.55 in 10.0 mi NW 3.5 mph - N/A   Overcast
4:15 PM 46.4 °F 42.4 °F 37.4 °F 71% 29.56 in 10.0 mi NNW 8.1 mph - N/A   Overcast
4:35 PM 46.4 °F 44.3 °F 37.4 °F 71% 29.57 in 10.0 mi NW 4.6 mph - N/A   Overcast
4:55 PM 46.4 °F 44.3 °F 37.4 °F 71% 29.58 in 10.0 mi NNW 4.6 mph - N/A   Overcast
5:15 PM 46.4 °F 44.3 °F 37.4 °F 71% 29.59 in 10.0 mi NNW 4.6 mph - N/A   Overcast
5:35 PM 44.6 °F 42.2 °F 37.4 °F 76% 29.59 in 10.0 mi NNW 4.6 mph - N/A   Overcast
5:55 PM 44.6 °F 41.4 °F 37.4 °F 76% 29.60 in 10.0 mi North 5.8 mph - N/A   Overcast
6:15 PM 44.6 °F 43.1 °F 37.4 °F 76% 29.61 in 10.0 mi North 3.5 mph - N/A   Overcast
6:35 PM 44.6 °F 40.7 °F 37.4 °F 76% 29.62 in 10.0 mi NNW 6.9 mph - N/A   Overcast
6:55 PM 44.6 °F 41.4 °F 37.4 °F 76% 29.63 in 10.0 mi NNW 5.8 mph - N/A   Overcast
7:15 PM 44.6 °F 40.7 °F 37.4 °F 76% 29.64 in 10.0 mi North 6.9 mph - N/A   Overcast
7:35 PM 44.6 °F 41.4 °F 37.4 °F 76% 29.65 in 10.0 mi NNW 5.8 mph - N/A   Overcast
7:55 PM 42.8 °F 38.6 °F 37.4 °F 81% 29.65 in 10.0 mi North 6.9 mph - N/A   Overcast
8:15 PM 42.8 °F 40.1 °F 37.4 °F 81% 29.66 in 10.0 mi North 4.6 mph - N/A   Overcast
8:35 PM 42.8 °F 40.1 °F 37.4 °F 81% 29.66 in 10.0 mi North 4.6 mph - N/A   Overcast
8:55 PM 42.8 °F 41.1 °F 37.4 °F 81% 29.67 in 10.0 mi North 3.5 mph - N/A   Overcast
9:15 PM 42.8 °F 41.1 °F 37.4 °F 81% 29.68 in 10.0 mi North 3.5 mph - N/A   Overcast
9:35 PM 42.8 °F 41.1 °F 37.4 °F 81% 29.68 in 10.0 mi NW 3.5 mph - N/A   Overcast
9:55 PM 42.8 °F 41.1 °F 37.4 °F 81% 29.69 in 10.0 mi North 3.5 mph - N/A   Overcast
10:15 PM 42.8 °F 40.1 °F 37.4 °F 81% 29.69 in 10.0 mi North 4.6 mph - N/A   Overcast
10:35 PM 42.8 °F 39.3 °F 37.4 °F 81% 29.70 in 10.0 mi NNW 5.8 mph - N/A   Overcast
10:55 PM 42.8 °F 38.6 °F 37.4 °F 81% 29.70 in 10.0 mi North 6.9 mph - N/A   Overcast
11:15 PM 42.8 °F 39.3 °F 37.4 °F 81% 29.71 in 10.0 mi North 5.8 mph - N/A   Overcast
11:35 PM 41.0 °F 37.1 °F 37.4 °F 87% 29.71 in 10.0 mi North 5.8 mph - N/A   Overcast
11:55 PM 41.0 °F 38.0 °F 37.4 °F 87% 29.71 in 10.0 mi North 4.6 mph - N/A   Overcast